Content
SEND FEEDBACK

Daily
Averages
Monthly
Summary
United States of America

DEWEYVILLE, TEXAS


Home > North America > United States > Texas
Elevation: 30 feet     Latitude: 30 18N     Longitude: 093 45W

WEATHER
 
SELECT A DAY
Number of Records: 108,109;   Date Range: 8/25/05 - 7/27/14
 
SHARE

PRINT THIS DATA

[ ← Previous Day ]
WEATHER ALMANAC - JUNE 7, 2014
[ Next Day → ]
[ °C ]   °F
Weather ElementAverageHighLow
Temperature80.8 °F88.7 °F (2:15 pm)70 °F (5:55 am)
Dewpoint72.3 °F78.8 °F (8:35 am)67.8 °F (2:55 pm)
Humidity77.3 %100 % (12:35 am)50 % (2:55 pm)
Barometer29.96 in30.01 in (8:35 am)29.92 in (5:35 pm)
Wind Speed5.5 mph12.7 mph (6:15 pm)
Wind Gust17.3 mph (4:15 pm)
Weather ElementAverage
Visibility8.9 mi
Wind DirectionESE (114.6 °)

Weather ElementTotal
Precipitation---
Cooling Degree Days14.4 (Base 65)
Growing Degree Days29.4 (Base 50)
Averaged from 67 records on June 7, 2014
WEATHER CONDITIONS BREAKOUT
WIND DIRECTION BREAKOUT
WEATHER BY HOUR - JUNE 7, 2014
[ °C ]   °F
Local TimeTemperatureDewpointHumidityBarometerVisibilityWind DirectionWind SpeedGust SpeedPrecipitationEventsConditions
12:35 AM75.2 °F75.2 °F100 %29.94 in10.0 miCalmClear
12:55 AM75.2 °F75.2 °F100 %29.94 in10.0 miCalmClear
1:15 AM75.9 °F75.9 °F100 %29.94 in10.0 miSSW (200°)3.5 mphClear
1:35 AM75.9 °F75.9 °F100 %29.94 in10.0 miCalmClear
1:55 AM76.5 °F76.5 °F100 %29.95 in10.0 miCalmClear
2:15 AM74.8 °F74.8 °F100 %29.95 in10.0 miCalmClear
2:35 AM74.8 °F74.8 °F100 %29.95 in10.0 miCalmClear
2:55 AM73.4 °F73.4 °F100 %29.95 in10.0 miCalmClear
3:15 AM72.9 °F72.9 °F100 %29.96 in7.0 miCalmClear
3:35 AM73.2 °F73.2 °F100 %29.96 in7.0 miCalmClear
3:55 AM72.9 °F72.9 °F100 %29.96 in5.0 miCalmClear
4:15 AM72.5 °F72.5 °F100 %29.96 in1.8 miCalmMist
4:35 AM72.5 °F72.5 °F100 %29.96 in1.8 miCalmMist
4:55 AM70.9 °F70.9 °F100 %29.96 in4.0 miCalmClear
5:15 AM71.4 °F71.4 °F100 %29.96 in0.5 miCalmFogFog
5:35 AM71.1 °F71.1 °F100 %29.96 in1.5 miCalmMist
5:55 AM70.0 °F70.0 °F100 %29.96 in2.5 miCalmClear
6:15 AM70.7 °F70.7 °F100 %29.97 in4.0 miCalmClear
6:55 AM71.2 °F71.2 °F100 %29.99 in5.0 miCalmClear
7:15 AM71.6 °F71.6 °F100 %30.00 in5.0 miCalmClear
7:35 AM73.8 °F73.8 °F100 %30.00 in10.0 miCalmClear
7:55 AM76.6 °F76.6 °F100 %30.00 in10.0 miCalmClear
8:35 AM78.8 °F78.8 °F100 %30.01 in10.0 miCalmClear
8:55 AM81.1 °F77.9 °F90 %30.01 in10.0 miSouth (180°)4.6 mphScattered Clouds
9:15 AM82.4 °F73.9 °F75 %30.01 in10.0 miSouth (180°)6.9 mphScattered Clouds
9:35 AM82.6 °F73.8 °F75 %30.00 in10.0 miSouth (190°)4.6 mphMostly Cloudy
9:55 AM83.8 °F72.7 °F69 %30.00 in10.0 miSouth (170°)4.6 mphScattered Clouds
10:15 AM84.0 °F72.7 °F69 %30.00 in10.0 miSSE (150°)4.6 mphClear
10:35 AM84.9 °F73.2 °F68 %29.99 in10.0 miSouth (180°)8.1 mphScattered Clouds
10:55 AM85.3 °F71.4 °F63 %30.00 in10.0 miSouth (170°)8.1 mphClear
11:15 AM85.6 °F72.7 °F65 %30.00 in10.0 miSSW (200°)8.1 mphScattered Clouds
11:35 AM85.5 °F72.0 °F64 %30.00 in10.0 miSSW (210°)8.1 mphMostly Cloudy
12:15 PM86.9 °F71.8 °F61 %29.99 in10.0 miSSE (150°)10.4 mphClear
12:35 PM87.1 °F71.8 °F60 %29.99 in10.0 miSouth (190°)11.5 mphClear
1:15 PM87.6 °F71.6 °F59 %29.98 in10.0 miSSE (160°)11.5 mphClear
1:35 PM87.6 °F70.5 °F57 %29.97 in10.0 miSSE (160°)10.4 mphClear
1:55 PM88.0 °F69.3 °F54 %29.97 in10.0 miSouth (170°)10.4 mphClear
2:15 PM88.7 °F68.2 °F51 %29.97 in10.0 miSSE (150°)6.9 mphClear
2:35 PM88.7 °F68.2 °F51 %29.96 in10.0 miSSE (150°)9.2 mphClear
2:55 PM88.7 °F67.8 °F50 %29.96 in10.0 miSouth (170°)9.2 mphClear
3:15 PM88.3 °F70.2 °F55 %29.95 in10.0 miSouth (170°)10.4 mphClear
3:35 PM88.0 °F70.9 °F57 %29.95 in10.0 miSouth (170°)10.4 mphClear
3:55 PM88.0 °F70.2 °F55 %29.94 in10.0 miSouth (170°)10.4 mphClear
4:15 PM88.0 °F70.9 °F57 %29.94 in10.0 miSSE (160°)11.5 mph17.3 mphClear
4:35 PM88.3 °F71.6 °F57 %29.93 in10.0 miSouth (170°)9.2 mphClear
4:55 PM87.8 °F70.9 °F57 %29.93 in10.0 miSSE (160°)11.5 mphClear
5:15 PM87.8 °F70.7 °F57 %29.93 in10.0 miSouth (170°)9.2 mphClear
5:35 PM87.3 °F70.5 °F57 %29.92 in10.0 miSouth (170°)9.2 mphClear
5:55 PM86.9 °F70.7 °F58 %29.92 in10.0 miSSE (150°)10.4 mphClear
6:15 PM87.1 °F71.4 °F59 %29.92 in10.0 miSouth (170°)12.7 mphClear
6:35 PM86.2 °F71.6 °F62 %29.92 in10.0 miSSE (150°)9.2 mphClear
6:55 PM85.3 °F72.3 °F65 %29.93 in10.0 miSouth (170°)12.7 mph16.1 mphScattered Clouds
7:15 PM84.6 °F72.1 °F66 %29.93 in10.0 miSSE (160°)11.5 mph16.1 mphScattered Clouds
7:35 PM83.8 °F72.1 °F68 %29.93 in10.0 miSouth (170°)8.1 mphClear
7:55 PM83.1 °F72.0 °F69 %29.93 in10.0 miSouth (170°)9.2 mphClear
8:15 PM81.9 °F72.0 °F72 %29.93 in10.0 miSouth (170°)6.9 mphClear
8:35 PM81.5 °F71.4 °F71 %29.93 in10.0 miSouth (180°)6.9 mphClear
8:55 PM80.8 °F71.8 °F74 %29.93 in10.0 miSouth (170°)4.6 mphClear
9:15 PM80.4 °F71.2 °F73 %29.93 in10.0 miSouth (170°)4.6 mphClear
9:35 PM79.9 °F71.6 °F76 %29.94 in10.0 miSouth (170°)4.6 mphClear
9:55 PM79.9 °F71.6 °F76 %29.95 in10.0 miSouth (170°)4.6 mphClear
10:15 PM79.9 °F71.4 °F75 %29.95 in10.0 miSouth (170°)3.5 mphClear
10:35 PM80.1 °F71.8 °F76 %29.96 in10.0 miSouth (170°)5.8 mphClear
10:55 PM80.1 °F72.3 °F77 %29.96 in10.0 miSouth (180°)6.9 mphClear
11:15 PM80.1 °F71.8 °F76 %29.96 in10.0 miSouth (170°)8.1 mphClear
11:35 PM79.9 °F72.3 °F78 %29.97 in10.0 miSouth (170°)5.8 mphClear
11:55 PM79.9 °F72.5 °F78 %29.96 in10.0 miSouth (180°)6.9 mphClear
Hourly data recorded from KORG, located miles away from Deweyville, Texas







STORIES FROM OUR PARTNERS